Location: Newark
(49.3000°N, 9.4667°E)
Time: 10:57:13
(UTC+00:00)

Transit 2A Rocket - Pass Details

Date: 21 May 2019
Orbit: 586 x 917 km, 66.7° (Epoch: 16 June)

Event Time Altitude Azimuth Distance (km) Brightness Sun altitude
Rises 23:01:08 0° 319° (NW) 3,528 9.3 -20.3°
Reaches altitude 10° 23:04:34 10° 337° (NNW) 2,548 8.7 -20.3°
Maximum altitude 23:08:33 18° 20° (NNE) 1,971 7.9 -20.4°
Drops below altitude 10° 23:12:21 10° 62° (ENE) 2,417 7.9 -20.4°
Sets 23:15:29 0° 82° (E) 3,280 8.4 -20.4°
